#timestamp,LO_Frequency,Hit,StdDev 
1579392015.2,286046986.7,P
1579392035.9,286046984.6,P
1579392055.7,286046982.5,P
1579392075.6,286046980.5,Y
1579392095.4,286046995.8,P
1579392115.3,286046994.9,N
1579392135.1,286046995.2,N
1579392136.0,286046995.2,N
1579392155.8,286046996.8,N
1579392175.7,286046997.1,N
1579392195.5,286046999.0,N
1579392215.4,286046998.2,N
1579392235.2,286046997.0,N
1579392255.0,286046997.3,N
1579392255.9,286046997.3,N
1579392275.8,286047001.2,N
1579392295.6,286047002.6,N
1579392315.5,286047001.5,N
1579392335.3,286047000.3,N
1579392355.1,286046997.1,N
1579392375.9,286046997.1,N
1579392395.7,286046998.4,N
1579392415.5,286046998.8,N
1579392435.4,286047000.6,N
1579392455.2,286047000.6,N
1579392475.1,286047000.5,N
1579392476.0,286047000.5,N
1579392495.8,286046998.3,N
1579392515.6,286047000.8,N
1579392535.5,286047001.7,N
1579392555.3,286047000.3,N
1579392575.2,286047000.5,N
1579392595.9,286047001.5,N
1579392615.7,286047002.1,N
1579392635.6,286047002.1,N
1579392655.4,286047004.4,N
1579392675.2,286047002.0,N
1579392695.1,286046999.7,N
1579392696.0,286046999.7,N
1579392715.8,286047001.4,N
1579392735.7,286047002.4,N
1579392755.5,286047002.1,N
1579392775.3,286047003.7,N
1579392795.2,286047003.6,N
1579392815.0,286047003.6,N
1579392815.9,286047003.6,N
1579392835.7,286047006.0,Y
1579392855.6,286047001.7,P
1579392875.4,286047001.8,P
1579392895.3,286047001.3,P
1579392915.1,286047001.9,Y
1579392935.8,286047001.9,P
1579392955.7,286047004.3,P
1579392975.5,286046999.9,N
1579392995.4,286047000.3,N
1579393015.2,286047001.3,N
1579393035.0,286047005.8,Y
1579393035.9,286047005.8,P
1579393055.8,286047005.7,N
1579393075.6,286047005.9,N
1579393095.5,286047003.7,N
1579393115.3,286047004.2,N
1579393135.1,286047003.9,N
1579393155.9,286047003.8,N
1579393175.7,286047001.7,N
1579393195.5,286047002.2,N
1579393215.4,286047002.4,N
1579393235.2,286047000.3,N
1579393255.1,286047004.2,N
1579393256.0,286047004.2,N
1579393275.8,286047003.0,N
1579393295.6,286047002.5,N
1579393315.5,286047001.8,N
1579393335.3,286047001.8,N
1579393355.1,286047001.4,N
1579393375.9,286047002.0,N
1579393395.7,286047002.6,N
1579393415.6,286047002.6,N
1579393435.4,286047001.4,N
1579393455.2,286047004.3,N
1579393475.1,286047001.5,N
1579393476.0,286047001.5,N
1579393495.8,286047001.9,N
1579393515.7,286047003.3,N
1579393535.5,286047003.7,N
1579393555.3,286047003.8,N
1579393575.2,286047004.3,Y
1579393595.0,286047000.4,P
1579393595.9,286047000.4,N
1579393615.7,286047004.4,P
1579393635.6,286046999.8,N
1579393655.4,286047001.7,N
1579393675.3,286047004.4,N
1579393695.1,286047002.0,N
1579393696.0,286047002.0,N
1579393715.8,286047003.7,N
1579393735.7,286047004.2,N
1579393755.5,286047002.0,N
1579393775.3,286047003.4,N
1579393795.2,286047004.2,N
1579393815.0,286047001.9,N
1579393815.9,286047001.9,N
1579393835.8,286047000.1,N
1579393855.6,286047000.3,N
1579393875.4,286047000.3,N
1579393895.3,286047003.6,N
1579393915.1,286047004.4,N
1579393935.9,286047001.6,N
1579393955.7,286047000.1,N
1579393975.5,286047004.4,N
1579393995.4,286047002.8,N
1579394015.2,286047002.1,N
1579394035.0,286047005.4,Y
1579394035.9,286047005.4,P
1579394055.8,286047002.7,N
1579394075.6,286047000.8,N
1579394095.5,286047000.5,N
1579394115.3,286047000.0,N
1579394135.1,286047001.8,N
1579394155.9,286046999.7,N
1579394175.7,286047002.6,N
1579394195.5,286047002.8,N
1579394215.4,286047000.2,N
1579394235.2,286047000.2,N
1579394255.1,286047000.4,N
1579394256.0,286047000.4,N
1579394275.8,286047001.0,N
1579394295.6,286046998.2,N
1579394315.5,286046999.0,N
1579394335.3,286046999.6,N
1579394355.1,286047001.1,N
1579394375.9,286046998.4,N
1579394395.7,286047000.6,N
1579394415.6,286046999.8,N
1579394435.4,286047001.1,N
1579394455.2,286047002.1,N
1579394475.1,286047000.1,N
1579394476.0,286047000.1,N
1579394495.8,286046999.3,N
1579394515.6,286046998.5,N
1579394535.5,286047001.0,N
1579394555.3,286047002.1,N
1579394575.2,286046999.8,N
1579394595.9,286047002.5,N
1579394615.7,286047002.5,N
1579394635.6,286047002.8,N
1579394655.4,286047004.3,Y
1579394675.2,286047002.6,P
1579394695.1,286046999.8,N
1579394696.0,286046999.8,N
1579394715.8,286046998.5,N
1579394735.7,286047000.9,N
1579394755.5,286047002.4,N
1579394775.3,286046999.9,N
1579394795.2,286047000.7,N
1579394815.0,286047001.0,N
1579394815.9,286047001.0,N
1579394835.8,286046998.5,N
1579394855.6,286047000.4,N
1579394875.4,286047000.1,N
1579394895.3,286047001.1,N
1579394915.1,286047000.8,N
1579394935.8,286046999.0,N
1579394955.7,286047001.0,N
1579394975.5,286047002.3,N
1579394995.3,286047002.1,N
1579395015.2,286047000.1,N
1579395035.0,286046999.9,N
1579395035.9,286046999.9,N
1579395055.8,286046999.9,N
1579395075.6,286047001.8,N
1579395095.4,286047001.9,N
1579395115.3,286047003.2,N
1579395135.1,286047006.0,Y
1579395155.9,286047004.2,P
1579395175.7,286047003.7,N
1579395195.5,286047004.4,N
1579395215.4,286047002.3,N
1579395235.2,286046999.7,N
1579395255.0,286047001.4,N
1579395255.9,286047001.4,N
1579395275.8,286047001.4,N
1579395295.6,286047002.2,N
1579395315.5,286046999.7,N
1579395335.3,286046999.9,N
1579395355.1,286047000.5,N
1579395375.9,286046998.7,N
1579395395.7,286046999.2,N
1579395415.6,286046999.2,N
1579395435.4,286046999.9,N
1579395455.2,286047002.5,N
1579395475.1,286047001.5,N
1579395476.0,286047001.5,N
1579395495.8,286047000.0,N
1579395515.6,286047000.6,N
1579395535.5,286047001.3,N
1579395555.3,286047001.3,N
1579395575.2,286047004.0,N
1579395595.9,286047002.1,N
